Theta_e
321 324 327 331 334 338 341 340 339 342 352 355 353 350 359 359 358 358 357 356 354 351 345 345 349 348 344 341 344 346 348 351 351 350 350 351 352 352 352 351 352 354 350 349
321 325 327 332 335 337 339 337 336 333 345 349 335 337 344 357 356 358 358 355 354 352 347 346 349 349 347 343 345 347 349 353 353 352 353 352 352 352 352 353 354 352 351 351
322 324 329 335 337 336 339 338 335 335 333 337 343 351 357 353 355 356 357 355 354 352 350 346 348 350 348 345 345 348 349 352 353 353 354 356 354 353 353 352 352 352 352 351
323 328 331 336 337 335 336 337 334 331 332 342 344 346 351 356 359 360 359 356 355 353 350 348 348 349 349 348 346 346 350 352 354 355 354 353 350 350 351 353 352 351 351 352
327 331 333 335 336 335 336 334 335 331 332 331 338 341 352 353 354 353 359 358 356 355 352 351 348 348 348 348 348 347 350 352 352 354 354 353 352 347 348 352 355 353 352 352
329 330 333 334 334 333 331 332 332 332 331 333 338 337 350 351 352 352 351 351 355 353 353 351 349 348 348 348 349 348 350 353 353 353 355 355 352 351 352 352 353 353 352 352
326 328 322 323 332 332 330 330 333 335 332 331 331 332 354 347 348 348 350 349 348 350 352 351 352 349 348 349 349 350 350 353 354 353 353 354 354 354 354 351 348 352 351 351
324 326 324 320 325 331 330 329 331 334 331 330 329 340 351 344 344 346 343 344 347 349 348 350 349 350 349 349 350 351 351 353 354 354 354 354 355 354 352 352 347 351 350 351
325 322 318 319 321 322 330 330 328 329 330 330 333 347 343 342 344 344 342 342 345 350 348 348 352 351 350 349 350 351 352 354 355 353 354 355 355 354 351 349 351 350 351 351
322 323 319 318 319 321 325 326 328 328 332 332 332 345 350 345 344 343 341 339 342 343 350 349 349 351 351 350 350 351 352 353 354 354 353 354 355 355 354 351 352 350 351 353
320 323 320 320 322 324 324 327 327 327 329 331 335 344 342 343 341 340 336 335 337 340 342 345 340 347 352 350 349 351 352 353 354 353 353 354 353 354 354 351 351 352 354 354
318 321 322 321 317 317 320 325 327 330 331 330 332 351 339 337 337 336 334 333 331 333 334 336 337 338 342 348 350 351 351 351 352 353 353 353 353 352 352 352 351 351 352 355
317 320 322 320 319 318 321 320 323 325 328 331 330 349 335 333 334 334 334 333 331 330 330 330 331 330 331 333 341 348 350 350 350 351 352 352 353 352 351 352 352 351 350 352
315 319 321 322 322 321 320 317 319 323 328 329 331 344 336 334 333 332 333 332 332 331 329 328 327 328 329 328 328 334 342 349 350 350 351 351 351 352 352 352 352 353 352 351
317 320 318 317 316 316 316 316 315 321 325 328 337 341 336 332 331 330 330 331 329 330 331 330 329 326 326 329 328 327 329 334 344 351 351 351 351 351 351 352 352 352 353 352
316 320 318 317 314 314 316 317 317 318 322 329 337 334 329 327 326 327 327 328 328 327 326 325 325 326 326 326 328 328 327 327 335 342 349 352 351 352 352 353 354 353 353 354
316 317 318 317 314 314 314 316 318 320 324 329 337 333 328 327 327 326 324 323 323 322 322 321 320 320 322 325 326 328 328 326 327 330 336 341 346 351 352 352 352 353 353 353
315 316 315 316 315 314 319 318 319 321 323 327 330 329 328 327 325 323 322 321 320 319 319 318 317 317 316 318 323 326 327 327 326 326 328 330 336 340 346 351 352 352 353 353
315 315 315 316 315 315 316 319 320 321 323 323 326 326 325 323 322 323 319 317 317 316 315 315 316 315 316 316 315 319 326 327 327 326 325 325 328 331 335 339 344 349 353 353
314 316 318 316 316 316 318 317 319 319 321 322 323 323 322 320 323 326 317 313 313 312 311 311 311 312 314 315 315 315 318 324 327 327 325 323 324 327 330 333 336 339 345 349
318 318 318 318 317 316 317 318 318 318 323 321 321 320 318 318 317 313 311 311 310 310 310 309 310 311 311 312 312 314 316 318 323 325 326 326 324 324 325 327 330 333 339 343
321 321 323 320 320 319 316 316 318 321 320 318 316 314 313 312 311 311 311 311 310 310 309 309 309 310 310 310 311 313 315 316 318 318 323 326 326 324 323 327 327 326 333 337
321 318 322 318 319 317 315 316 317 316 316 314 313 311 311 310 311 311 311 311 310 309 309 309 309 309 309 310 310 311 313 313 313 315 318 323 325 325 324 323 323 328 332 334
315 315 315 316 314 314 315 314 313 312 312 311 311 310 310 311 311 311 311 310 309 309 309 308 308 308 309 309 309 310 310 311 312 313 316 319 322 325 324 323 321 321 325 329
317 316 316 315 314 313 315 314 314 312 311 310 309 310 310 310 310 310 310 309 309 309 308 307 307 308 308 309 309 309 309 310 311 312 314 317 320 322 324 324 322 320 320 322
316 318 319 317 313 315 314 314 313 313 312 310 310 309 309 309 309 309 309 309 308 308 307 307 306 306 307 306 307 308 310 309 310 312 313 316 318 320 321 322 322 322 320 320
Wind_Speed
15 10 15 17 16 8 11 9 10 6 14 9 10 10 12 12 13 13 13 16 18 19 20 21 18 16 16 16 16 16 16 15 14 12 12 10 9 7 4 4 2 5 6 6
11 15 14 12 7 9 12 12 12 9 7 6 5 7 4 13 11 12 14 14 14 18 19 21 19 17 16 17 17 17 17 16 16 12 9 7 8 7 6 6 4 5 6 5
14 13 11 13 13 13 13 13 10 10 7 5 6 11 12 6 7 6 11 15 16 17 20 19 21 19 17 17 17 18 18 16 15 11 9 7 8 7 8 9 5 6 7 5
10 9 17 15 15 15 14 5 4 8 8 9 13 3 9 10 11 7 7 8 12 12 16 19 23 23 21 19 19 18 18 17 15 13 10 9 10 8 6 9 8 7 7 7
8 14 17 15 13 12 5 9 10 8 10 3 15 11 8 10 9 5 10 9 10 14 14 17 23 25 23 21 20 21 19 19 17 15 12 9 10 8 7 7 10 9 7 7
8 3 10 12 10 12 5 10 9 8 10 11 11 12 8 5 6 5 4 1 9 14 13 17 21 24 23 21 21 20 21 20 20 19 16 14 10 8 6 8 8 10 9 8
10 10 4 2 12 11 13 15 10 11 9 9 11 8 9 7 7 7 9 6 4 7 15 14 17 23 24 23 22 20 21 21 21 21 20 19 17 13 11 10 10 8 9 8
12 12 5 1 6 10 18 18 9 12 13 12 6 7 7 8 9 13 11 10 9 8 10 14 22 23 26 26 24 22 23 23 23 23 23 20 19 17 15 14 12 11 10 9
9 6 5 4 3 6 19 13 7 6 6 9 12 11 11 7 11 13 14 14 14 15 6 18 22 25 23 23 25 24 22 22 23 23 21 22 21 20 16 14 12 13 10 9
2 9 1 3 3 2 6 3 10 8 13 14 11 14 9 6 8 11 14 15 15 16 18 5 11 19 20 21 21 22 22 22 22 22 22 22 21 20 19 16 16 15 12 12
2 5 8 6 3 2 7 9 10 8 5 14 10 8 6 8 8 11 12 14 15 15 15 15 20 21 4 14 15 17 19 19 18 20 21 20 22 20 18 19 18 18 16 13
4 3 6 8 6 1 2 4 9 10 13 9 7 7 8 9 8 9 11 13 15 16 16 17 22 20 20 19 6 11 12 15 16 16 18 20 20 19 19 19 19 17 19 16
3 2 7 8 8 5 3 1 3 7 9 16 12 9 8 10 9 9 11 12 13 15 17 17 23 23 22 22 14 15 6 12 13 14 15 17 19 21 22 20 19 18 18 19
4 1 5 3 8 4 6 3 2 8 11 12 10 17 10 11 9 8 10 12 13 14 16 15 18 20 21 18 22 15 10 9 5 8 11 14 17 19 20 20 20 19 19 18
3 2 1 4 4 2 0 3 3 7 5 9 16 18 12 11 10 9 7 10 11 12 14 15 15 19 21 21 18 17 18 13 10 7 9 12 13 16 17 17 19 21 20 20
2 3 4 3 1 3 7 5 7 6 4 4 19 10 12 10 11 10 9 8 10 12 13 13 15 18 19 21 22 22 22 22 13 9 6 8 10 10 13 15 17 18 22 22
3 5 7 8 3 4 8 13 11 7 5 7 11 13 12 12 10 9 8 8 9 10 11 12 14 17 18 18 18 20 19 19 18 14 10 9 6 6 12 14 16 18 20 20
4 7 4 3 7 9 6 3 4 8 6 3 14 17 15 11 9 8 7 7 8 9 10 11 13 15 16 17 18 18 17 17 18 17 15 14 11 7 7 10 16 18 18 20
4 6 4 5 11 5 6 8 11 14 10 7 12 13 11 9 9 10 6 4 6 7 9 10 11 14 14 14 17 17 16 15 15 16 17 17 15 14 7 9 13 13 16 18
5 6 7 5 7 7 9 12 4 2 9 13 12 12 11 8 8 8 4 4 6 8 9 11 13 13 13 14 15 16 16 15 15 17 18 20 19 19 19 12 14 14 14 19
8 7 10 9 7 1 6 9 8 8 5 15 10 8 6 5 8 4 5 6 7 8 10 12 12 14 13 14 15 15 14 14 15 16 17 16 18 18 13 12 14 16 15 17
7 5 5 8 6 12 11 9 8 7 11 10 8 6 5 4 3 3 3 4 7 9 10 11 13 13 15 15 15 16 15 14 15 17 18 17 16 15 14 14 17 15 12 15
5 5 3 5 1 4 10 3 6 5 8 5 5 5 3 1 1 3 4 6 8 11 12 13 14 16 16 15 15 18 18 18 19 19 18 18 17 16 15 14 18 16 11 12
7 5 5 2 7 6 11 7 8 5 5 6 6 6 5 3 3 5 6 8 10 12 13 15 18 19 19 17 17 19 21 21 21 22 21 19 19 18 18 15 14 16 15 10
2 8 8 8 4 4 9 13 10 7 5 6 7 6 5 4 6 6 7 10 12 13 14 14 17 20 21 21 21 21 21 21 22 22 22 21 21 20 19 19 17 17 20 18
6 7 6 5 3 9 2 14 12 11 10 9 9 8 7 7 7 9 10 12 14 16 17 17 17 20 22 25 26 26 24 22 23 24 23 22 20 19 19 20 22 19 22 20
Wind_Direction
190 198 202 190 209 306 176 194 150 126 148 179 190 144 151 174 180 179 185 189 188 187 182 178 181 178 176 178 178 180 176 170 171 175 181 183 192 176 188 183 160 156 171 152
174 218 194 183 181 204 201 176 136 114 150 226 123 121 113 170 189 190 189 194 195 187 181 183 187 182 183 181 182 181 183 179 177 182 196 206 195 185 189 173 163 160 157 151
196 193 167 193 188 199 202 198 161 158 148 182 169 118 125 133 141 161 187 192 203 187 185 188 193 190 188 182 186 185 186 188 188 189 198 199 177 169 169 161 168 172 168 163
223 152 183 194 194 211 186 231 189 172 206 183 151 179 71 141 130 142 169 185 192 199 193 189 194 195 195 192 188 191 190 193 195 195 199 198 197 186 165 168 159 165 171 164
174 177 190 194 195 209 212 159 208 205 224 192 182 218 96 93 104 121 165 175 206 192 194 201 197 196 200 198 195 196 196 200 202 204 204 204 233 185 191 177 156 160 168 184
137 175 200 202 185 208 124 174 173 209 225 223 179 242 85 77 34 64 77 82 197 194 211 223 202 196 202 201 203 200 201 203 205 207 210 209 223 218 188 206 180 174 173 179
161 170 132 256 191 198 205 184 171 193 207 227 150 224 69 80 69 48 31 19 318 267 191 209 224 200 199 202 201 204 205 208 208 210 213 215 218 222 218 206 218 209 191 186
179 170 189 325 273 190 207 204 198 189 195 181 151 168 115 81 68 59 37 20 8 305 242 211 216 208 203 204 203 205 205 209 210 210 214 216 217 223 224 220 234 213 220 198
201 106 123 62 19 285 185 231 310 268 222 199 141 89 118 103 65 52 35 18 16 354 265 209 204 211 206 205 209 207 210 210 213 215 215 213 214 218 223 229 222 221 223 211
108 135 115 102 214 136 293 212 210 235 185 214 156 173 97 82 45 45 30 20 18 25 26 74 174 223 222 206 210 210 211 212 214 217 218 216 215 216 219 221 220 224 218 226
263 252 135 189 348 21 179 208 233 275 269 216 161 133 91 84 43 55 42 33 29 35 38 39 33 18 235 210 212 219 217 220 217 220 222 220 215 216 218 218 219 219 218 217
23 301 162 102 128 83 321 340 265 231 201 255 285 105 101 99 69 64 56 48 43 45 44 44 42 45 36 28 314 227 225 223 226 230 227 227 224 212 217 225 222 217 220 219
1 217 164 168 174 180 211 110 264 263 269 230 241 125 126 110 91 65 65 59 57 53 47 44 46 42 36 31 18 358 276 238 235 222 229 230 228 223 218 224 226 224 220 223
271 157 302 315 46 56 173 177 293 268 241 235 237 128 139 126 110 85 70 53 56 58 57 51 47 43 37 29 29 8 357 354 284 266 229 237 236 235 234 228 226 229 225 222
318 197 246 66 67 32 271 226 222 253 304 268 126 131 143 131 119 102 77 83 69 50 44 45 44 41 36 31 27 11 18 15 352 281 263 247 235 236 240 237 233 231 231 229
317 172 198 177 303 264 248 227 222 209 204 186 110 113 135 126 133 118 97 81 65 50 41 34 32 30 33 28 21 19 14 15 21 11 321 280 275 256 241 245 241 238 235 233
229 166 204 214 214 223 239 211 204 168 212 197 178 145 158 149 137 114 96 76 61 44 30 22 19 19 14 17 20 15 19 14 11 13 5 343 337 284 265 256 249 245 241 239
198 200 204 146 190 224 72 82 194 187 168 145 105 145 162 148 135 123 84 61 43 29 16 9 4 3 2 2 5 1 4 11 10 12 9 9 350 332 302 301 260 252 248 245
279 214 183 218 215 93 173 192 174 172 172 176 146 150 154 158 163 145 117 46 21 6 355 351 351 346 343 349 352 350 347 350 356 360 355 355 357 350 349 318 296 280 260 251
208 254 269 194 248 237 86 155 178 167 208 184 168 163 163 176 207 113 100 30 0 349 344 337 332 326 329 333 337 338 334 335 336 340 343 341 341 349 4 336 300 292 283 266
200 221 230 220 244 159 108 148 174 205 91 152 173 154 166 214 39 80 28 16 355 343 335 332 326 322 323 322 321 316 317 319 325 325 323 329 334 332 328 334 318 294 277 280
201 213 210 242 248 240 136 155 206 75 119 136 141 141 137 109 100 59 21 347 336 336 333 332 324 321 318 315 311 305 302 306 310 312 310 307 310 317 313 315 309 316 306 268
223 223 230 232 64 114 170 354 119 130 130 139 151 141 144 170 326 343 326 325 323 321 324 323 320 315 311 310 305 299 298 301 300 299 296 296 294 295 300 301 304 304 301 303
219 203 236 257 193 188 177 164 166 168 160 167 177 170 184 238 284 304 309 316 314 312 314 317 315 311 307 307 303 295 293 294 292 290 288 286 286 286 286 283 283 289 287 297
220 168 215 237 208 201 194 190 182 182 173 176 180 197 224 260 280 304 310 313 311 308 307 313 312 307 304 304 301 297 292 288 284 281 281 280 280 282 284 281 283 287 287 285
201 211 200 233 250 212 205 196 192 191 198 201 204 206 224 246 280 302 306 313 314 313 312 310 310 309 306 304 298 295 291 282 277 275 271 268 274 278 280 285 289 286 297 301